Location: Bishop�s Knoyle
(51.0728°N, 2.1714°W)
Time: 05:15:55
(UTC+00:00)

CENTAUR R/B - Pass Details

Date: 24 January 2021
Orbit: 742 x 1446 km, 63.5° (Epoch: 02 March)

Event Time Altitude Azimuth Distance (km) Brightness Sun altitude
Rises 05:52:40 0° 188° (S) 3,386 5.3 -19.1°
Reaches altitude 10° 05:55:09 10° 179° (S) 2,535 4.8 -18.7°
Maximum altitude 06:00:26 35° 115° (ESE) 1,525 4.1 -17.9°
Drops below altitude 10° 06:06:37 10° 53° (NE) 2,978 5.6 -17.0°
Sets 06:09:45 0° 46° (NE) 4,059 6.3 -16.5°
